This demonstration page uses our WeatherBlox Daily Observations layout. Learn more.

Left ArrowRight Arrow

39.92423, -83.80882

Hourly Observations for December 25, 2015

Temp ( °F °C ) Dew Point ( °F °C ) Humidity (%) Winds ( mph kmh ) Pressure ( in mb ) Visibility ( mi km ) Precip ( " mm )
12:56 am 00:56 Mostly Cloudy 55 12.7 51 10.5 87 87 S 10 17 30.06 1018 10 16.0934 0 0
1:56 am 01:56 Clear 56 13.3 51 10.5 83 83 SSW 8 13 30.07 1018 10 16.0934 0 0
2:56 am 02:56 Clear 56 13.3 52 11.1 87 87 S 7 11 30.07 1018 10 16.0934 0 0
3:56 am 03:56 Clear 54 12.2 51 10.5 89 89 W 5 7 30.09 1019 10 16.0934 0 0
4:56 am 04:56 Clear 53 11.6 50 10 90 90 WSW 6 9 30.11 1020 10 16.0934 0 0
5:56 am 05:56 Mostly Clear 53 11.6 47 8.3 80 80 NW 9 15 30.12 1020 10 16.0934 0 0
6:56 am 06:56 Clear 50 10 46 7.7 86 86 NW 7 11 30.14 1021 10 16.0934 0 0
7:56 am 07:56 Sunny 49 9.4 43 6.1 80 80 NNW 7 11 30.16 1021 10 16.0934 0 0
8:56 am 08:56 Mostly Sunny 49 9.4 43 6.1 80 80 N 6 9 30.16 1021 10 16.0934 0 0
9:56 am 09:56 Sunny 49 9.4 43 6.1 80 80 Calm 30.2 1023 10 16.0934 0 0
10:56 am 10:56 Mostly Sunny 50 10 42 5.5 74 74 NNW 12 19 30.22 1023 10 16.0934 0 0
11:56 am 11:56 Sunny 49 9.4 42 5.5 77 77 NNW 12 19 30.19 1023 10 16.0934 0 0
12:56 pm 12:56 Sunny 49 9.4 42 5.5 77 77 N 7 11 30.19 1022 10 16.0934 0 0
1:56 pm 13:56 Sunny 51 10.5 41 5 69 69 N 9 15 30.18 1022 10 16.0934 0 0
2:56 pm 14:56 Sunny 51 10.5 41 5 69 69 N 7 11 30.21 1023 10 16.0934 0 0
3:56 pm 15:56 Mostly Cloudy 50 10 41 5 71 71 N 8 13 30.23 1024 10 16.0934 0 0
4:56 pm 16:56 Partly Cloudy 48 8.8 40 4.4 74 74 N 8 13 30.25 1024 10 16.0934 0 0
5:56 pm 17:56 Mostly Clear 46 7.7 40 4.4 80 80 N 9 15 30.27 1025 10 16.0934 0 0
6:56 pm 18:56 Clear 44 6.6 39 3.8 83 83 NNE 9 15 30.28 1026 10 16.0934 0 0
7:56 pm 19:56 Partly Cloudy 44 6.6 40 4.4 86 86 NE 13 20 30.29 1026 10 16.0934 0 0
8:56 pm 20:56 Cloudy 43 6.1 39 3.8 85 85 NE 14 22 30.3 1026 10 16.0934 0 0
9:56 pm 21:56 Mostly Cloudy 43 6.1 37 2.7 79 79 NE 15 24 30.31 1026 10 16.0934 0 0.0254
10:56 pm 22:56 Cloudy 43 6.1 37 2.7 79 79 NE 14 22 30.31 1027 10 16.0934 0 0
11:56 pm 23:56 Cloudy 43 6.1 37 2.7 79 79 NE 14 22 30.31 1026 10 16.0934 0 0

Powered by AerisWeather